Wind_Speed
35 36 36 36 37 37 35 35 34 31 33 32 31 28 26 26 25 23 20 19 17 17 16 14 14 15 17 18 19 22 25 28 32 36 41 44 49 51 51 48 45 49 51
36 35 35 35 36 38 36 34 34 32 34 33 32 29 28 27 25 22 20 21 17 17 15 15 17 18 20 21 24 27 30 33 37 42 43 46 51 52 52 51 51 51 52
34 32 32 34 35 35 35 35 33 33 33 33 32 30 28 26 24 24 20 20 18 18 17 18 20 21 23 25 28 31 34 36 41 41 46 50 53 55 53 52 53 54 55
33 31 32 31 33 34 33 34 33 33 32 31 29 28 27 26 26 24 21 20 19 20 20 21 23 25 26 28 31 33 36 38 41 46 51 54 57 57 55 55 56 58 56
33 33 34 33 32 33 33 33 33 32 31 29 28 28 28 27 27 24 23 20 21 22 23 24 25 27 29 32 35 36 38 41 45 50 54 58 60 58 57 59 60 60 59
35 37 36 35 31 28 31 34 34 34 33 31 30 31 29 29 28 25 25 22 23 24 26 27 28 30 33 36 39 39 42 45 48 54 60 61 61 58 58 64 64 61 61
37 39 38 38 33 29 28 32 34 33 32 32 31 31 30 29 27 26 26 25 26 27 28 30 32 35 39 41 41 42 46 50 53 58 61 62 61 59 60 68 64 64 63
40 41 40 40 36 33 30 29 30 30 30 31 32 31 30 29 27 27 27 28 29 30 32 33 37 40 42 42 44 47 50 54 56 60 63 62 60 60 65 71 69 66 66
44 44 43 42 40 36 33 31 30 30 32 32 32 30 30 30 29 30 29 30 31 33 35 38 41 42 43 44 48 51 54 57 60 63 64 62 61 63 71 73 72 70 69
47 47 46 44 44 40 36 34 32 32 32 32 32 30 30 30 32 32 31 32 34 36 39 41 43 43 44 48 51 53 57 62 66 67 65 63 64 68 76 74 73 73 72
50 49 48 46 43 43 40 36 34 34 35 35 34 33 32 32 33 34 35 37 39 40 42 44 45 46 49 52 55 58 62 66 68 67 65 66 69 74 76 75 73 73 75
52 52 51 49 46 46 42 40 38 37 36 37 36 36 35 36 37 39 40 41 42 43 45 47 48 51 53 56 59 62 65 68 69 66 67 69 74 77 76 74 74 76 79
58 56 55 53 50 48 45 44 42 41 40 40 40 39 39 41 42 43 44 46 46 47 49 50 52 54 57 60 62 65 68 68 69 69 70 73 76 78 78 77 78 80 82
55 59 58 56 53 51 50 48 46 45 44 43 43 44 45 45 46 47 48 49 51 51 53 54 56 58 61 63 65 68 70 69 69 72 74 76 80 82 82 82 82 83 84
64 63 60 59 57 54 54 53 52 49 47 48 49 49 49 49 49 50 52 53 54 55 56 58 59 63 65 66 68 70 70 70 72 76 78 82 83 85 84 84 86 88 90
68 65 64 63 62 60 58 57 56 54 53 53 52 53 53 52 53 55 56 57 58 59 60 62 64 67 68 70 72 72 71 72 77 79 83 86 88 89 87 88 89 90 93
69 68 65 65 65 64 62 61 60 59 58 58 58 58 57 57 58 58 59 60 60 62 65 66 67 69 70 72 74 73 73 76 80 83 86 89 92 92 92 94 93 96 97
68 70 67 67 67 67 66 64 63 63 64 63 61 59 60 60 61 62 62 64 66 67 69 69 70 71 73 75 73 75 76 79 82 87 90 93 93 94 95 96 99 100 102
74 71 69 69 69 68 68 66 68 67 67 66 65 64 65 65 65 67 69 70 69 70 71 72 73 73 76 75 77 79 80 84 87 90 93 95 95 96 100 101 105 105 104
81 76 74 72 72 71 71 71 68 66 67 66 66 66 66 68 69 71 72 72 72 73 74 75 75 76 76 80 79 81 85 88 90 95 97 97 98 102 103 107 108 108 101
84 82 82 79 76 73 71 69 70 70 70 71 72 73 73 73 73 75 75 75 76 75 76 78 77 79 79 80 81 84 89 91 95 96 99 100 103 105 108 108 111 106 100
88 86 83 80 78 77 77 76 76 77 77 78 77 77 77 78 78 77 77 77 77 78 79 80 82 79 80 84 85 86 88 94 97 100 101 103 106 108 110 111 109 103 101
90 88 86 84 83 81 81 80 79 81 82 81 80 80 80 80 79 79 79 80 81 81 81 83 84 82 83 85 89 92 93 96 99 101 104 105 109 111 111 110 105 103 102
94 92 89 87 86 85 84 83 83 82 82 81 81 82 82 81 81 82 82 81 82 83 85 84 81 82 85 88 93 97 101 101 99 100 100 107 110 110 109 105 103 103 100
98 96 92 91 90 88 87 86 85 85 84 83 84 84 83 83 83 82 82 82 82 82 81 82 84 87 90 93 98 101 101 102 104 104 107 107 111 109 104 101 101 100 90
102 99 96 93 92 90 88 87 86 85 84 83 83 83 84 85 85 85 84 85 85 86 87 89 91 93 96 99 99 99 102 104 106 109 109 111 111 104 97 98 100 88 82
Wind_Direction
237 239 243 247 248 249 248 245 243 246 248 249 257 262 260 263 267 268 274 280 287 286 288 291 294 298 306 311 315 314 313 318 322 326 329 329 330 332 334 334 332 333 332
239 243 246 248 249 250 250 246 245 243 246 247 251 258 260 261 264 262 267 275 279 279 279 285 293 299 307 313 312 314 317 321 323 322 322 324 328 330 336 337 336 333 330
240 245 247 248 250 250 247 244 243 242 242 247 252 255 255 257 257 257 265 269 274 272 278 286 293 305 307 311 312 316 316 318 320 321 322 324 327 333 336 336 334 331 328
243 245 243 244 248 247 247 242 240 239 242 245 247 246 248 248 249 257 264 263 265 271 280 288 298 303 306 310 311 312 313 315 316 320 323 325 329 331 334 335 331 329 329
242 245 238 239 244 244 242 240 236 237 241 242 242 244 241 243 248 255 257 258 265 273 282 287 294 300 306 309 308 309 311 313 316 320 323 325 326 328 332 332 330 327 326
243 243 238 238 239 242 239 239 235 239 238 239 239 238 240 244 249 252 252 258 268 275 281 288 292 298 302 305 306 306 311 313 315 319 322 325 325 327 330 330 327 326 327
243 242 239 238 240 238 237 236 236 235 235 236 235 238 243 247 250 253 255 263 272 277 283 288 293 296 299 305 307 307 310 313 315 318 320 320 323 325 326 328 327 327 327
245 240 239 238 240 239 238 237 236 235 235 237 239 243 245 248 252 257 261 267 274 279 285 290 294 297 301 306 307 309 314 316 317 318 318 320 321 323 324 325 327 326 324
245 240 239 239 238 240 239 239 240 243 243 243 244 246 249 252 256 260 265 271 276 281 286 290 293 298 302 304 308 313 316 318 318 319 320 320 320 321 323 325 327 326 326
241 239 240 240 240 241 242 242 243 244 245 245 245 247 253 256 258 262 267 273 279 283 286 289 293 296 300 304 307 310 315 317 318 320 320 317 318 320 324 325 326 326 324
238 238 240 243 242 243 243 244 244 246 247 249 250 250 254 258 262 269 275 278 281 283 287 290 293 299 301 305 307 311 315 317 319 318 317 315 317 321 324 324 325 322 322
238 237 240 241 243 243 244 245 244 246 247 249 252 256 258 260 266 269 272 275 278 280 284 290 295 298 302 305 308 312 315 316 317 315 313 314 317 320 322 321 321 322 322
239 236 238 240 242 245 246 246 247 247 249 251 255 259 263 266 269 272 275 277 279 283 288 292 296 300 301 305 309 311 313 315 313 312 310 313 316 319 320 320 321 320 321
238 239 239 240 243 245 248 250 249 251 252 255 259 261 264 268 272 275 278 280 283 287 290 293 296 299 302 305 307 310 312 311 310 310 310 312 316 317 318 319 319 319 320
234 235 237 241 243 245 249 252 254 253 254 256 259 262 266 270 275 277 280 282 286 289 291 293 296 300 302 303 306 310 310 308 308 308 309 311 315 316 316 318 317 320 320
234 237 237 238 241 243 247 250 253 252 255 258 260 264 268 271 274 276 280 282 286 288 291 293 296 298 302 303 307 308 307 306 306 308 310 312 314 314 317 317 319 319 318
233 234 237 240 241 244 245 248 251 253 257 259 261 266 269 272 275 277 279 282 286 289 292 293 296 299 300 303 305 306 304 304 306 308 309 311 313 315 317 317 318 318 318
235 237 238 238 240 243 245 247 250 254 256 259 262 264 269 271 273 278 281 285 288 290 291 294 296 298 299 302 304 303 303 305 306 307 308 311 313 315 315 317 318 317 318
238 241 241 242 243 244 246 248 250 253 256 259 263 267 269 272 276 280 282 285 287 289 291 294 295 297 299 302 302 302 303 304 304 305 308 311 313 314 315 317 317 318 318
238 241 244 244 245 247 248 250 252 253 255 259 263 266 270 273 277 279 281 284 287 288 290 293 296 297 299 300 301 300 302 303 304 306 310 312 313 314 316 316 317 317 315
239 240 242 243 244 246 248 250 253 256 259 261 264 267 270 274 276 277 280 283 285 288 291 293 294 296 296 297 300 299 300 301 304 308 310 311 313 315 315 316 316 314 310
240 243 245 247 249 250 251 253 254 257 259 261 264 267 270 273 274 277 279 283 285 287 290 291 294 295 295 297 296 296 298 303 305 308 310 311 313 315 314 315 313 311 308
239 242 244 245 247 249 251 253 256 258 260 263 265 267 270 272 276 279 281 283 285 288 290 291 293 293 294 292 294 296 300 303 306 308 311 312 312 313 313 312 310 308 307
238 240 242 244 245 248 250 252 254 257 261 264 267 269 271 274 276 279 283 284 285 286 287 289 289 289 290 292 295 298 302 304 305 306 309 310 312 312 311 309 308 308 308
238 240 241 243 246 248 249 251 252 255 258 261 264 267 269 271 273 275 276 278 280 282 284 285 287 288 290 293 296 299 302 304 305 307 309 311 311 310 308 308 309 309 308
237 239 242 244 244 247 250 252 254 256 258 260 263 265 268 270 272 274 276 278 280 282 284 286 287 289 292 295 298 301 302 303 307 307 309 310 310 308 307 308 308 308 308
Height
10907 10911 10914 10917 10920 10922 10925 10926 10928 10930 10932 10934 10936 10937 10940 10942 10942 10942 10942 10942 10941 10941 10941 10940 10940 10939 10938 10937 10935 10934 10932 10931 10929 10926 10925 10922 10919 10915 10911 10906 10902 10898 10893
10903 10906 10909 10912 10915 10917 10919 10922 10924 10926 10928 10930 10932 10934 10936 10938 10938 10939 10938 10938 10938 10938 10938 10937 10937 10936 10935 10934 10932 10930 10929 10926 10924 10923 10920 10918 10914 10910 10904 10900 10896 10891 10887
10900 10902 10905 10908 10910 10912 10914 10917 10920 10922 10924 10926 10928 10931 10932 10933 10934 10935 10934 10934 10935 10935 10934 10934 10933 10933 10931 10930 10928 10926 10924 10922 10920 10917 10915 10912 10908 10903 10898 10894 10889 10886 10881
10896 10898 10901 10903 10906 10908 10910 10913 10916 10918 10920 10922 10924 10926 10928 10929 10930 10930 10930 10931 10931 10931 10930 10929 10929 10928 10927 10926 10924 10922 10920 10918 10915 10912 10909 10906 10900 10897 10893 10888 10884 10879 10873
10891 10893 10896 10899 10901 10903 10906 10908 10911 10914 10916 10918 10920 10922 10924 10925 10926 10926 10927 10927 10927 10926 10926 10925 10924 10923 10922 10921 10919 10917 10915 10913 10910 10906 10903 10899 10894 10890 10886 10882 10877 10873 10867
10885 10888 10891 10895 10897 10899 10901 10904 10907 10909 10911 10913 10916 10918 10919 10920 10921 10921 10922 10922 10922 10922 10921 10920 10919 10918 10917 10915 10914 10912 10911 10907 10904 10900 10895 10891 10886 10883 10879 10875 10870 10865 10860
10879 10883 10886 10889 10892 10895 10897 10899 10902 10904 10907 10909 10911 10912 10914 10915 10916 10916 10917 10917 10917 10917 10916 10915 10914 10913 10911 10910 10908 10906 10904 10901 10898 10893 10889 10884 10880 10876 10871 10868 10863 10857 10851
10875 10878 10880 10884 10887 10890 10893 10895 10898 10900 10902 10904 10905 10907 10909 10910 10911 10912 10912 10912 10912 10911 10911 10910 10908 10906 10905 10904 10901 10899 10897 10893 10889 10885 10881 10877 10872 10868 10863 10859 10853 10847 10841
10869 10871 10875 10879 10882 10885 10888 10891 10893 10896 10897 10898 10900 10902 10904 10905 10906 10906 10907 10907 10907 10906 10905 10903 10902 10900 10899 10897 10895 10891 10888 10884 10881 10877 10872 10867 10863 10859 10854 10848 10843 10837 10831
10861 10865 10869 10873 10877 10880 10883 10886 10888 10890 10892 10893 10896 10898 10899 10899 10900 10901 10901 10901 10901 10900 10899 10897 10895 10894 10892 10889 10887 10884 10881 10876 10872 10868 10863 10859 10854 10849 10844 10838 10831 10825 10820
10854 10858 10863 10867 10871 10875 10877 10880 10882 10885 10886 10888 10890 10892 10894 10894 10895 10895 10894 10894 10894 10893 10891 10890 10888 10886 10883 10881 10878 10876 10873 10868 10863 10858 10854 10849 10844 10838 10832 10826 10820 10815 10809
10848 10852 10855 10859 10864 10867 10870 10874 10876 10878 10880 10882 10884 10886 10887 10888 10889 10889 10888 10888 10887 10886 10885 10883 10881 10879 10876 10873 10871 10868 10862 10858 10853 10849 10844 10839 10834 10828 10823 10816 10811 10805 10798
10838 10843 10848 10852 10856 10860 10863 10866 10868 10871 10873 10875 10877 10879 10880 10881 10881 10881 10881 10880 10880 10879 10877 10875 10873 10871 10868 10866 10862 10858 10854 10848 10843 10839 10835 10829 10824 10818 10812 10807 10801 10795 10788
10831 10835 10839 10845 10849 10853 10855 10858 10861 10864 10866 10868 10870 10871 10872 10873 10873 10873 10872 10872 10871 10870 10868 10866 10864 10862 10860 10857 10853 10849 10845 10839 10833 10829 10824 10819 10814 10808 10802 10795 10790 10783 10776
10820 10826 10832 10837 10841 10845 10848 10851 10853 10855 10858 10860 10862 10863 10864 10865 10866 10865 10863 10864 10863 10861 10859 10857 10855 10852 10850 10847 10844 10840 10835 10829 10823 10818 10811 10805 10802 10797 10791 10784 10777 10769 10761
10811 10818 10823 10828 10832 10836 10839 10841 10844 10846 10848 10851 10853 10854 10856 10857 10857 10856 10855 10854 10854 10852 10850 10848 10846 10843 10839 10835 10833 10829 10824 10818 10812 10806 10798 10792 10786 10780 10776 10770 10763 10755 10748
10800 10809 10813 10819 10823 10827 10830 10832 10835 10837 10840 10842 10844 10846 10846 10847 10847 10846 10846 10845 10845 10842 10840 10838 10836 10832 10828 10825 10821 10817 10812 10807 10801 10793 10785 10779 10772 10764 10757 10751 10745 10738 10730
10791 10796 10803 10808 10812 10816 10820 10824 10826 10830 10831 10832 10836 10837 10837 10837 10837 10837 10836 10835 10835 10833 10830 10828 10825 10821 10817 10814 10810 10805 10800 10794 10788 10780 10771 10766 10758 10750 10742 10735 10728 10720 10711
10782 10787 10791 10797 10801 10806 10810 10814 10817 10820 10820 10823 10826 10827 10827 10827 10828 10826 10825 10824 10824 10821 10818 10816 10813 10810 10805 10802 10798 10790 10786 10781 10774 10766 10759 10751 10742 10734 10725 10717 10709 10701 10691
10771 10776 10781 10785 10789 10794 10799 10803 10806 10809 10810 10814 10814 10815 10817 10817 10817 10816 10813 10813 10812 10810 10807 10804 10800 10796 10793 10788 10785 10777 10772 10767 10759 10750 10742 10733 10726 10716 10707 10697 10689 10680 10672
10759 10763 10767 10772 10777 10783 10788 10791 10795 10797 10800 10801 10803 10804 10806 10807 10806 10804 10803 10801 10800 10798 10794 10790 10787 10784 10779 10775 10774 10766 10759 10753 10743 10737 10728 10718 10707 10698 10688 10679 10669 10659 10651
10746 10751 10758 10765 10769 10773 10778 10782 10785 10787 10788 10788 10791 10793 10794 10793 10793 10794 10792 10789 10787 10786 10781 10777 10774 10771 10765 10759 10757 10756 10750 10738 10729 10722 10712 10702 10690 10680 10668 10660 10650 10639 10629
10731 10737 10744 10752 10757 10761 10764 10769 10772 10773 10774 10776 10779 10779 10780 10780 10780 10780 10778 10775 10773 10771 10767 10764 10761 10757 10753 10746 10740 10735 10735 10730 10720 10704 10693 10682 10673 10662 10650 10639 10629 10620 10608
10718 10723 10730 10737 10743 10748 10752 10756 10759 10760 10762 10763 10764 10764 10764 10766 10766 10764 10762 10761 10758 10756 10754 10751 10747 10742 10738 10733 10725 10716 10711 10709 10706 10702 10687 10671 10656 10643 10631 10620 10609 10597 10587
10705 10709 10715 10722 10728 10733 10737 10742 10746 10749 10751 10752 10753 10753 10753 10754 10754 10754 10752 10750 10748 10745 10742 10738 10734 10729 10722 10717 10710 10702 10695 10689 10681 10677 10671 10657 10642 10627 10612 10600 10589 10578 10568
10689 10696 10703 10709 10714 10719 10724 10728 10732 10736 10738 10739 10740 10740 10739 10739 10740 10739 10738 10736 10733 10729 10726 10722 10718 10713 10707 10701 10695 10687 10679 10672 10663 10655 10648 10639 10627 10611 10595 10583 10571 10561 10551